Location: Unspecified
(0.0000°N, 0.0000°E)
Time: 00:28:17
(UTC+00:00)

Tiangong - Visible Passes

Search period start: 08 August 2022 00:00
Search period end: 18 August 2022 00:00
Orbit: 379 x 387 km, 41.5° (Epoch: 07 August)

Date Brightness Start Highest point End Pass type
(mag) Time Alt. Az. Time Alt. Az. Time Alt. Az.
09 Aug -1.4 19:05:08 10° SSW 19:07:59 33° SE 19:08:05 32° SE visible
10 Aug -0.1 19:41:47 10° WSW 19:44:27 25° NW 19:44:50 25° NNW visible
11 Aug -2.1 18:41:07 10° SW 18:44:15 79° NW 18:47:22 10° NE visible
12 Aug 1.3 19:20:03 10° NW 19:20:42 10° NW 19:21:19 10° NNW visible
13 Aug 0.7 05:11:26 10° N 05:13:51 20° NE 05:16:15 10° E visible
15 Aug -1.5 04:48:24 25° NNW 04:49:56 55° NE 04:53:03 10° ESE visible
16 Aug -0.4 05:24:57 14° WSW 05:26:17 17° SW 05:28:29 10° S visible
17 Aug 0.8 04:28:57 10° SSE 04:28:57 10° SSE 04:29:00 10° SSE visible
